Date,TemperatureHighF,TemperatureAvgF,TemperatureLowF,DewpointHighF,DewpointAvgF,DewpointLowF,HumidityHigh,HumidityAvg,HumidityLow,PressureMaxIn,PressureMinIn,WindSpeedMaxMPH,WindSpeedAvgMPH,GustSpeedMaxMPH,PrecipitationSumIn
2013-2-1,29,23,16,24,13,5,84,67,51,30.53,30.23,18,2,18,0.00
2013-2-2,40,31,22,34,27,18,94,85,66,30.36,30.09,16,3,16,0.04
2013-2-3,43,34,23,36,29,21,97,82,61,30.20,30.00,12,2,21,0.01
2013-2-4,56,31,22,36,25,20,95,82,35,30.16,29.91,16,1,16,0.00
2013-2-5,62,48,32,43,37,30,90,67,33,30.06,29.91,15,2,15,0.00
2013-2-6,60,44,31,38,33,24,93,67,28,30.23,30.06,8,1,8,0.00
2013-2-7,63,49,36,49,40,32,92,70,47,30.12,29.90,9,2,12,0.00
2013-2-8,50,44,35,49,41,29,96,89,75,30.35,29.86,16,3,16,0.17
2013-2-9,53,40,28,35,30,25,89,69,40,30.38,30.15,15,2,15,0.00
2013-2-10,60,50,40,54,43,32,96,79,45,30.16,29.86,26,5,26,0.52
2013-2-11,58,48,32,56,37,27,96,69,36,30.15,29.89,15,3,15,0.00
2013-2-12,52,43,28,37,31,27,96,67,41,30.17,29.82,13,1,13,0.00
2013-2-13,46,40,30,39,36,29,95,84,57,30.01,29.72,12,2,14,0.23
2013-2-14,61,40,26,40,32,25,97,78,35,30.05,29.95,18,2,18,0.00
2013-2-15,50,38,28,40,30,21,97,73,49,30.18,30.02,14,2,14,0.01
2013-2-16,38,28,16,27,17,10,91,66,33,30.22,30.12,18,2,18,0.00
2013-2-17,45,28,13,22,17,10,93,68,33,30.32,30.20,13,1,13,0.00
2013-2-18,62,44,23,43,30,20,91,62,37,30.20,29.86,30,6,30,0.21
2013-2-19,47,41,25,44,29,18,95,67,34,30.23,29.84,23,5,23,0.24
2013-2-20,37,28,20,21,17,14,85,64,44,30.36,30.23,13,2,13,0.00
2013-2-21,47,36,26,40,25,17,94,67,35,30.27,29.88,21,4,21,0.53
2013-2-22,61,52,42,49,46,40,97,82,59,30.02,29.86,21,4,21,0.00
2013-2-23,52,39,32,36,33,26,95,81,48,30.02,29.90,9,1,9,0.00
2013-2-24,56,39,24,29,26,22,93,62,30,30.15,29.99,11,2,14,0.00
2013-2-25,65,50,36,43,32,25,66,49,31,30.04,29.57,20,6,20,0.00
2013-2-26,56,48,39,50,43,35,93,83,63,29.69,29.39,26,8,26,0.28
2013-2-27,40,39,38,36,34,30,87,82,74,29.89,29.69,19,6,19,0.00
2013-2-28,39,36,33,32,30,27,87,78,66,30.05,29.86,14,3,14,0.00